Theta_e
324 321 319 317 316 315 314 314 313 311 310 310 309 309 308 308 308 308 308 308 306 302 303 308 310 310 311 311 312 312 313 316 319 323 318 314 313 311 309 310 318 322 323
322 319 317 315 314 314 313 312 310 310 310 309 309 309 309 308 308 307 307 307 307 305 304 304 305 306 306 307 307 308 311 314 317 319 321 318 314 313 312 310 309 314 322
317 317 316 315 312 311 308 308 309 309 310 309 309 308 307 307 306 306 306 306 306 306 304 303 302 302 303 304 304 305 307 309 311 317 318 320 320 314 313 313 308 309 314
314 313 313 310 307 308 309 309 309 309 307 307 305 304 304 303 303 305 305 305 304 304 303 302 300 300 300 300 302 303 304 306 307 311 315 317 319 319 316 313 313 308 309
309 309 310 309 308 308 309 307 306 304 303 304 303 301 301 301 300 303 304 304 303 302 301 301 299 298 298 298 299 300 302 304 306 308 310 312 315 318 319 317 314 312 309
310 309 309 309 308 307 305 303 302 302 301 301 301 300 301 300 301 303 303 301 301 301 300 299 299 299 298 298 298 299 301 303 304 305 307 308 310 313 316 319 318 315 312
308 309 308 307 305 304 303 302 301 301 301 301 301 300 300 301 304 303 301 300 300 298 299 298 298 297 297 297 298 298 299 301 301 302 303 304 307 308 312 315 318 316 315
308 307 306 305 303 303 303 302 301 300 299 299 300 300 301 300 300 301 298 298 298 298 297 296 296 296 297 297 297 297 298 299 299 299 300 301 303 306 308 312 315 316 315
306 306 305 303 303 302 301 301 300 299 299 298 298 299 301 300 298 297 297 296 296 295 295 295 295 295 296 297 297 297 296 294 296 297 299 300 301 303 305 309 312 315 317
305 304 303 303 303 302 302 300 298 299 298 298 297 297 297 296 298 297 295 294 294 294 293 293 293 293 294 295 296 295 295 293 295 297 297 298 298 300 303 307 309 312 315
305 304 304 303 303 302 301 300 299 299 297 296 296 295 295 294 293 294 295 293 292 292 292 291 290 291 292 293 294 294 292 290 290 295 296 297 297 298 302 303 306 308 313
304 304 304 303 303 302 301 300 299 298 297 296 294 294 293 293 293 293 293 292 291 291 290 290 290 290 290 290 292 293 292 291 291 291 293 295 296 296 297 301 303 305 308
302 301 302 302 302 301 300 299 298 297 296 295 294 293 292 292 292 291 291 291 291 290 290 290 290 289 289 289 289 290 292 291 289 290 290 291 292 294 295 296 300 302 303
300 300 301 300 299 299 298 298 297 296 296 295 293 293 292 291 291 291 290 290 292 290 289 289 289 288 288 288 288 288 289 290 289 290 289 288 289 289 291 293 295 298 300
298 297 297 297 297 297 297 297 296 296 295 294 293 292 291 291 290 290 289 289 289 291 290 288 288 287 287 287 287 287 287 288 288 288 290 288 287 289 289 289 290 291 296
296 295 295 295 296 296 296 296 296 295 294 293 292 291 291 290 289 289 289 288 288 288 291 287 287 287 286 286 286 286 286 286 286 287 289 288 288 287 288 288 289 289 292
295 294 294 294 295 295 295 295 295 294 293 292 291 291 290 290 289 288 288 287 287 287 287 286 286 286 285 285 285 286 286 287 287 288 289 288 287 287 287 287 288 289 290
294 294 295 295 295 295 295 295 294 292 291 291 291 290 289 288 288 287 287 286 286 285 285 285 285 284 284 284 284 284 285 285 286 288 288 287 287 286 285 286 287 289 290
294 294 294 295 294 294 293 292 291 291 290 290 289 289 288 287 286 285 285 285 284 284 284 284 284 283 283 283 284 284 286 286 286 287 287 287 286 285 285 285 286 287 290
294 294 293 292 292 292 291 290 290 290 290 289 288 287 285 284 284 283 283 283 283 283 283 283 283 283 283 283 284 284 284 285 286 287 287 287 286 286 285 284 285 287 289
293 293 293 292 291 291 289 290 290 289 288 287 285 284 283 282 280 280 280 281 281 281 282 282 283 283 283 283 284 284 284 284 284 285 286 287 287 287 288 287 288 290 292
293 293 292 291 291 289 287 286 285 286 286 285 284 283 283 282 281 280 280 280 280 280 282 282 282 283 283 283 283 284 283 284 286 285 286 287 287 287 287 287 288 289 288
293 292 292 291 290 290 285 284 283 284 284 283 283 282 282 281 281 281 280 280 281 281 281 281 281 282 283 283 283 283 283 283 284 285 285 285 286 286 287 287 286 287 287
292 292 291 291 290 288 284 283 282 283 284 283 282 282 282 281 281 279 279 280 280 281 281 281 281 281 281 281 282 283 283 283 283 284 284 285 285 285 286 286 286 286 286
291 291 291 290 289 287 284 282 281 283 284 283 282 282 280 279 279 278 279 279 279 280 280 280 280 280 280 281 281 282 282 283 284 284 285 285 285 285 285 286 287 286 285
290 290 290 289 287 286 283 281 281 283 283 282 282 281 280 278 277 277 277 278 279 279 279 279 280 281 281 282 282 282 283 283 283 284 284 285 285 285 286 286 286 287 287
Wind_Speed
4 4 3 2 2 2 3 5 7 9 11 12 14 15 16 15 15 15 14 16 16 13 12 10 10 11 13 13 14 14 14 15 15 14 17 15 14 14 13 14 14 16 19
5 5 4 3 1 1 3 6 9 11 13 15 17 17 16 16 15 14 14 13 15 12 10 10 10 12 13 14 15 15 15 16 16 16 15 19 17 14 14 14 15 16 18
6 4 2 1 2 4 6 8 10 12 15 18 19 19 19 17 15 13 12 10 10 13 14 14 14 15 15 16 17 17 16 16 16 17 18 17 19 20 17 16 14 15 18
7 5 4 3 6 7 8 9 11 15 18 17 18 19 19 18 15 12 10 10 10 11 12 15 19 18 17 19 18 19 19 18 17 16 17 17 18 19 22 19 17 16 16
5 4 5 5 6 6 8 11 13 14 17 17 18 20 18 19 17 13 9 8 10 12 14 16 19 22 19 21 20 20 19 19 18 17 16 18 19 18 19 23 21 19 16
4 5 5 4 6 7 9 11 13 14 16 16 19 20 17 19 17 11 10 12 12 13 15 18 20 20 22 22 22 20 19 20 19 17 17 18 18 19 20 21 24 23 20
5 4 3 5 6 7 8 9 12 15 16 16 20 19 19 15 9 12 15 16 15 18 18 19 20 22 23 23 21 20 22 19 18 18 18 19 19 20 20 23 21 26 25
3 3 5 5 5 6 7 9 11 14 16 16 15 21 9 14 20 6 19 17 19 18 21 21 23 23 22 23 21 22 18 17 20 19 20 19 19 20 20 20 23 24 28
2 3 3 4 5 8 10 9 10 12 16 17 12 12 10 9 18 21 17 17 20 23 22 23 22 22 21 21 22 20 18 22 19 18 19 20 19 19 20 20 20 24 25
2 4 6 6 8 10 10 10 10 12 15 16 15 13 13 15 10 12 18 20 22 23 25 24 22 24 22 20 19 17 14 19 16 15 17 18 19 19 19 19 19 21 27
7 9 10 10 11 12 12 9 9 17 16 14 15 13 13 15 16 15 12 20 23 22 20 21 24 25 23 22 21 19 17 17 17 16 15 16 18 18 19 18 19 19 19
12 13 13 13 14 14 13 11 14 17 14 13 13 12 14 14 15 16 12 17 21 24 22 23 23 24 25 26 23 22 19 22 24 19 16 16 17 18 18 18 18 17 13
15 17 17 16 16 16 14 13 16 17 14 14 12 14 13 15 15 16 18 20 18 27 27 25 25 25 24 25 25 26 21 24 27 26 19 17 17 17 19 19 19 19 18
15 15 15 15 16 16 17 17 18 17 16 13 13 14 15 15 16 17 20 20 14 24 28 29 27 28 27 26 25 29 28 25 23 26 25 22 18 17 19 20 19 17 17
12 14 16 18 19 19 19 18 20 19 17 14 15 15 15 16 16 18 21 21 21 14 16 30 30 28 27 27 27 27 29 29 28 27 28 23 20 18 18 19 21 20 18
14 18 20 21 21 20 19 19 20 19 15 15 15 16 17 18 19 22 23 24 25 27 16 31 32 30 29 30 30 29 30 29 31 30 28 22 20 19 17 18 21 22 21
17 20 20 20 19 18 17 18 19 15 13 14 15 17 17 20 23 24 25 26 27 27 24 35 33 31 29 29 29 26 27 29 28 27 24 21 17 18 17 16 18 21 22
18 19 18 17 16 15 16 16 15 9 11 14 15 16 20 23 25 25 25 26 27 28 27 30 31 29 28 28 28 29 28 26 27 26 10 16 17 20 20 18 18 20 21
17 16 15 15 15 15 14 9 7 9 11 11 13 18 21 22 23 23 24 25 24 25 25 26 29 28 28 27 26 24 24 23 24 25 28 26 22 17 18 20 20 20 21
15 15 14 12 9 9 6 6 8 7 11 14 16 18 18 18 20 21 22 21 21 22 23 25 27 26 25 24 24 24 22 21 20 20 21 21 19 19 21 21 21 20 20
14 15 12 9 8 7 5 5 6 11 14 16 16 16 17 16 17 16 17 20 20 20 21 24 24 24 23 22 22 23 22 22 23 20 20 17 17 17 14 13 12 10 14
13 12 8 7 6 5 7 5 8 13 15 15 15 16 16 15 14 18 16 18 20 24 26 25 25 24 26 24 24 21 20 19 11 16 13 16 14 12 12 12 9 12 12
12 11 10 9 8 6 7 7 12 12 13 13 14 16 16 15 16 18 18 20 23 20 21 23 27 25 23 24 23 21 21 21 19 20 15 16 11 12 13 15 14 17 14
12 12 10 9 9 7 7 9 12 10 12 13 14 15 16 16 16 16 20 22 21 20 20 20 23 25 25 25 22 21 23 24 22 22 17 17 16 17 16 15 15 17 18
13 12 10 10 10 8 9 9 10 11 11 14 13 14 14 15 15 17 20 21 22 20 17 19 22 23 22 22 19 19 20 19 17 19 16 17 16 16 15 15 14 13 13
12 11 10 10 10 7 9 8 8 9 12 13 14 14 12 12 16 18 19 19 20 20 22 22 20 18 17 17 16 17 17 16 17 18 16 8 10 8 6 11 12 13 11
Wind_Direction
179 170 154 137 107 38 7 350 342 347 347 343 338 334 328 321 317 315 312 305 311 313 314 329 355 2 10 9 358 323 308 301 297 294 289 293 301 298 292 278 262 253 250
180 175 170 161 94 30 356 353 346 344 336 332 329 325 319 314 311 308 306 300 309 317 318 321 333 350 351 352 356 353 347 337 324 309 294 284 285 288 289 286 273 263 255
184 177 175 125 64 26 13 3 351 331 327 324 322 321 315 311 307 306 304 302 305 317 327 322 324 326 332 339 339 338 337 333 330 327 316 295 281 278 281 288 280 269 261
165 166 124 68 27 20 2 350 335 328 327 322 321 318 312 310 304 298 298 306 306 308 314 320 323 325 330 331 332 330 326 324 321 316 313 303 297 281 273 273 278 269 265
166 107 69 44 27 2 348 345 335 334 327 320 318 313 305 302 296 286 287 294 302 313 311 312 322 326 320 329 327 326 324 322 316 311 306 309 303 293 278 269 267 269 263
115 91 69 42 5 346 348 350 341 332 325 319 317 309 304 298 290 277 287 303 301 310 310 315 316 311 319 321 321 323 323 322 318 309 308 304 297 293 287 267 259 258 262
103 89 22 2 6 359 354 344 336 330 323 321 317 312 303 290 277 281 300 309 307 312 312 313 313 312 311 315 314 316 319 318 321 315 311 305 299 293 297 274 265 253 252
107 40 14 348 355 333 324 335 338 330 323 325 316 313 309 301 291 290 307 306 307 314 314 316 314 313 311 310 307 313 315 314 317 318 317 312 304 296 291 291 271 257 248
61 359 341 335 317 322 316 318 328 333 322 317 312 305 314 312 321 302 304 305 311 311 312 313 315 317 312 308 309 308 310 313 316 317 319 319 310 299 292 292 284 267 249
301 313 316 311 302 303 299 303 308 320 318 310 306 298 299 300 302 308 308 302 302 304 309 311 309 310 315 313 309 309 301 323 323 318 317 320 321 307 296 292 292 283 257
304 309 306 296 286 288 287 287 298 315 309 301 302 304 302 298 297 303 308 305 302 300 304 305 307 302 305 304 305 301 317 324 344 327 319 319 323 323 304 296 297 300 271
306 305 298 288 283 284 280 280 298 303 295 294 290 294 289 299 302 311 308 307 303 303 304 301 300 301 300 298 295 296 302 307 311 319 324 313 319 326 320 310 302 301 321
308 307 304 296 287 283 275 272 292 292 286 282 286 288 294 294 299 302 301 303 303 300 299 299 297 296 295 295 291 290 291 294 302 303 307 312 313 315 322 320 315 307 312
311 311 307 301 293 285 282 278 288 291 289 282 274 279 290 296 301 301 302 303 300 299 299 298 301 299 296 293 295 296 292 285 292 291 294 297 301 307 311 316 318 315 310
318 315 310 304 296 289 284 278 285 292 290 275 273 276 285 294 298 299 299 297 299 299 296 301 301 300 297 296 295 292 288 284 288 289 282 287 293 293 294 303 314 317 308
320 316 312 305 297 290 282 280 286 287 284 275 279 285 289 295 300 299 297 298 295 291 293 296 298 301 299 296 293 291 285 283 282 275 271 273 286 293 289 287 296 307 315
318 314 310 305 298 291 283 283 290 293 278 281 286 290 291 298 300 300 298 296 292 290 291 295 298 300 300 297 296 294 292 288 280 271 257 257 277 286 286 287 282 291 304
315 312 309 305 299 293 295 296 291 280 288 288 295 295 296 302 300 298 296 295 294 293 291 291 296 299 300 300 296 295 291 283 280 273 254 267 280 283 281 283 284 278 287
313 309 308 305 304 300 297 290 283 294 290 294 297 301 302 302 300 301 300 298 298 293 290 288 292 296 297 298 296 294 295 285 279 274 267 269 274 269 279 277 277 281 273
309 310 310 305 303 304 294 288 297 292 298 302 302 301 302 302 303 307 303 301 300 298 294 292 292 294 294 294 292 290 292 288 293 287 278 270 267 269 273 273 273 277 268
307 305 303 299 295 280 279 286 297 306 305 306 304 304 304 305 306 303 304 304 302 297 296 292 292 292 293 296 293 300 294 291 284 284 286 274 263 260 266 250 265 276 263
303 304 294 287 278 250 253 276 309 312 307 307 308 309 309 309 308 309 297 296 291 290 291 295 298 297 295 296 293 288 295 296 290 279 302 278 267 266 272 267 256 274 285
298 293 281 283 263 235 253 294 312 317 308 309 310 312 313 311 312 312 309 301 297 296 286 290 289 288 304 297 297 289 288 290 290 291 276 284 281 281 278 275 275 268 271
291 286 282 271 250 228 266 302 319 314 309 311 313 313 313 316 320 318 311 309 306 304 303 303 301 302 299 304 301 292 290 288 286 283 263 265 268 274 276 272 268 270 260
284 277 273 257 241 240 271 302 321 311 309 314 315 316 316 317 325 321 316 312 309 307 311 310 304 298 292 290 293 293 283 278 278 281 277 258 260 264 265 264 260 264 263
281 277 264 245 237 250 270 293 311 309 311 314 316 319 320 314 319 321 317 312 310 314 318 317 313 309 300 296 284 275 275 275 273 278 276 246 250 248 262 241 246 242 246